Regional Weather Roundup
Issued by NWS

Home | Current Version | Previous Version | Graphics & Text | Print | Product List | Glossary On
Versions: 1 2 3 4 5 6 7 8 9 10 11 12 13 14 15 16 17 18 19 20 21 22 23 24 25 26 27
000
ASUS45 KBOI 160310
RWRID
WEATHER ROUNDUP FOR IDAHO
NATIONAL WEATHER SERVICE BOISE ID
900 PM MDT TUE APR 15 2014

NOTE: "FAIR" INDICATES FEW OR NO CLOUDS BELOW 12000 FEET
WITH NO SIGNIFICANT WEATHER AND/OR OBSTRUCTIONS TO VISIBILITY

IDZ012-014-160400-
SOUTHWEST IDAHO


CITY           SKY/WX    TMP DP  RH WIND       PRES   REMARKS
BOISE          CLEAR     53  12  19 N13       29.97R
CALDWELL       CLEAR     52  18  25 N14       30.00R
MOUNTAIN HOME  CLEAR     53  21  28 NW20      29.95R
$$

IDZ016-017-160400-
SOUTHCENTRAL IDAHO


CITY           SKY/WX    TMP DP  RH WIND       PRES   REMARKS
BURLEY         PTCLDY    47  21  35 W15G28    29.89R
JEROME         CLEAR     46  19  34 W15       29.93R
TWIN FALLS     CLEAR     49  19  30 W16       29.94R
$$

IDZ019>023-160400-
SOUTHEAST IDAHO


CITY           SKY/WX    TMP DP  RH WIND       PRES   REMARKS
IDAHO FALLS    PTCLDY    43  17  35 N18       29.84R
POCATELLO      PTCLDY    47  21  35 N8        29.88R
REXBURG        MOCLDY    41  17  38 VRB6      29.84R
$$

IDZ006-010-011-018-031-032-160400-
CENTRAL IDAHO MOUNTAINS


CITY           SKY/WX    TMP DP  RH WIND       PRES   REMARKS
MCCALL         CLEAR     38  12  34 W7        29.97R WCI  33
HAILEY         PTCLDY    45  16  31 NW10      29.90R
STANLEY          N/A     34  17  50 NW3       29.96R
SALMON         MOCLDY    43  19  39 N8        29.97R
CHALLIS        PTCLDY    41  32  70 N12       29.91R
$$

IDZ002-004-006-007-026-160400-
NORTHERN IDAHO


CITY           SKY/WX    TMP DP  RH WIND       PRES   REMARKS
LEWISTON       MOCLDY    56  18  22 SW13G21   29.96R
LOWELL           N/A     45  43  93 CALM      30.01R
COEUR D`ALENE  PTCLDY    45  36  70 SE6       29.92R
MULLAN PASS    FOG       27  27 100 S6        29.90R VSB 3/4 WCI  20
$$



USA.gov is the U.S. government's official web portal to all federal, state and local government web resources and services.